362  
ASUS41 KCLE 201612  
RWRCLE  
OHIO REGIONAL WEATHER ROUNDUP  
NATIONAL WEATHER SERVICE WILMINGTON, OH  
1100 AM EST MON NOV 20 2017  
 
NOTE: "FAIR" INDICATES FEW OR NO CLOUDS BELOW 12,000 FEET WITH NO  
SIGNIFICANT WEATHER AND/OR S TO VISIBILITY
.  
 
OHZ001>008-015>018-024>027-034-035-043-044-201700-  
NORTHWEST OHIO  
 
CITY SKY/WX TMP DP RH WIND PRES REMARKS
 
DEFIANCE FAIR 39 24 55 SW18G28 30.06F  
FINDLAY FAIR 38 26 62 S17 30.09F  
TOLEDO EXPRESS FAIR 40 26 57 S15G22 30.05F  
TOLEDO EXEC FAIR 39 25 57 SW22G29 30.07F  
LIMA FAIR 36 27 69 S13 30.10F  

 
 
OHZ009>014-019>023-028>033-038-089-201700-  
NORTHEAST OHIO  
 
CITY SKY/WX TMP DP RH WIND PRES REMARKS
 
CLE-HOPKINS FAIR 38 26 62 S16G23 30.12F  
CLE-LAKEFRONT FAIR 39 24 55 S15G25 30.09F  
CUY CO. ARPT MOSUNNY 39 27 60 SW15 30.09F  
LORAIN-ELYRIA FAIR 37 21 52 SW20 30.10F  
ASHTABULA FAIR 34 26 72 SW13 30.08F WCI 25  
AKRON-CANTON FAIR 35 23 61 SW15 30.13F WCI 25  
WOOSTER FAIR 35 24 64 SW13G21 30.14S WCI 26  
MANSFIELD FAIR 37 24 59 S16 30.12F  
YOUNGSTOWN FAIR 35 24 64 S12 30.11S WCI 27  

 
 
OHZ042-051>053-060>062-070>072-077>081-201700-  
SOUTHWEST OHIO  
 
CITY SKY/WX TMP DP RH WIND PRES REMARKS
 
CINC-COVINGTON PTSUNNY 37 25 61 S13 30.22S  
CINC-LUNKEN FAIR 38 26 62 S9 30.25F  
HAMILTON FAIR 40 24 53 SW8 30.23F  
DAYTON FAIR 36 25 64 S17 30.18F  
WRIGHT-PAT AFB MOSUNNY 36 19 51 S7 30.20S  
DAYTON GENERAL FAIR 36 25 64 S14 30.19F  
WILMINGTON FAIR 35 27 72 SW15 30.20F WCI 25  

 
 
OHZ036-037-039>041-045>050-054>059-063>069-073>076-082>088-201700-  
CENTRAL AND SOUTHEAST OHIO  
 
CITY SKY/WX TMP DP RH WIND PRES REMARKS
 
COLUMBUS FAIR 37 25 61 S13 30.20F  
OSU AIRPORT FAIR 36 26 67 S13 30.18F  
BOLTON FIELD SUNNY 36 27 69 S9 30.21F  
RICKENBACK AFB FAIR 35 25 66 SW10 30.22F WCI 28  
NEWARK FAIR 36 23 59 SW12 30.20F  
MARION FAIR 36 26 67 SW15 30.15F  
LANCASTER FAIR 36 24 62 SW9 30.22S  
ZANESVILLE FAIR 36 22 56 S9 30.21F  
NEW PHILLY FAIR 35 23 61 S9 30.19F WCI 28  

 
 
 
CLICK HERE TO GO TO PREVIOUS BULLETINS.

The Nexlab OH Page
The Nexlab PA Page Main Text Page